Year,Month,Day,Hour,Minute,Value (Times are PST for temperature in C)
2014,09,13,00,00,11.10
2014,09,13,00,01,11.10
2014,09,13,00,02,11.00
2014,09,13,00,03,11.10
2014,09,13,00,04,11.00
2014,09,13,00,05,11.10
2014,09,13,00,06,11.00
2014,09,13,00,07,11.00
2014,09,13,00,08,11.00
2014,09,13,00,09,11.00
2014,09,13,00,10,11.00
2014,09,13,00,11,11.00
2014,09,13,00,12,11.00
2014,09,13,00,13,11.00
2014,09,13,00,14,11.00
2014,09,13,00,15,11.00
2014,09,13,00,16,11.00
2014,09,13,00,17,10.90
2014,09,13,00,18,10.90
2014,09,13,00,19,10.90
2014,09,13,00,20,10.90
2014,09,13,00,21,10.90
2014,09,13,00,22,10.90
2014,09,13,00,23,10.90
2014,09,13,00,24,10.90
2014,09,13,00,25,10.90
2014,09,13,00,26,10.90
2014,09,13,00,27,10.90
2014,09,13,00,28,10.90
2014,09,13,00,29,10.90
2014,09,13,00,30,10.90
2014,09,13,00,31,10.90
2014,09,13,00,32,10.90
2014,09,13,00,33,10.90
2014,09,13,00,34,10.90
2014,09,13,00,35,10.80
2014,09,13,00,36,10.90
2014,09,13,00,37,10.80
2014,09,13,00,38,10.80
2014,09,13,00,39,10.80
2014,09,13,00,40,10.80
2014,09,13,00,41,10.80
2014,09,13,00,42,10.80
2014,09,13,00,43,10.80
2014,09,13,00,44,10.80
2014,09,13,00,45,10.80
2014,09,13,00,46,10.80
2014,09,13,00,47,10.80
2014,09,13,00,48,10.80
2014,09,13,00,49,10.80
2014,09,13,00,50,10.80
2014,09,13,00,51,10.80
2014,09,13,00,52,10.80
2014,09,13,00,53,10.80
2014,09,13,00,54,10.80
2014,09,13,00,55,10.80
2014,09,13,00,56,10.80
2014,09,13,00,57,10.80
2014,09,13,00,58,10.70
2014,09,13,00,59,10.70
2014,09,13,01,00,10.70
2014,09,13,01,01,10.70
2014,09,13,01,02,10.70
2014,09,13,01,03,10.70
2014,09,13,01,04,10.70
2014,09,13,01,05,10.70
2014,09,13,01,06,10.60
2014,09,13,01,07,10.60
2014,09,13,01,08,10.60
2014,09,13,01,09,10.60
2014,09,13,01,10,10.60
2014,09,13,01,11,10.60
2014,09,13,01,12,10.60
2014,09,13,01,13,10.60
2014,09,13,01,14,10.60
2014,09,13,01,15,10.60
2014,09,13,01,16,10.60
2014,09,13,01,17,10.60
2014,09,13,01,18,10.50
2014,09,13,01,19,10.50
2014,09,13,01,20,10.50
2014,09,13,01,21,10.50
2014,09,13,01,22,10.40
2014,09,13,01,23,10.40
2014,09,13,01,24,10.40
2014,09,13,01,25,10.40
2014,09,13,01,26,10.40
2014,09,13,01,27,10.40
2014,09,13,01,28,10.40
2014,09,13,01,29,10.30
2014,09,13,01,30,10.30
2014,09,13,01,31,10.30
2014,09,13,01,32,10.30
2014,09,13,01,33,10.30
2014,09,13,01,34,10.30
2014,09,13,01,35,10.30
2014,09,13,01,36,10.30
2014,09,13,01,37,10.30
2014,09,13,01,38,10.30
2014,09,13,01,39,10.20
2014,09,13,01,40,10.20
2014,09,13,01,41,10.20
2014,09,13,01,42,10.20
2014,09,13,01,43,10.20
2014,09,13,01,44,10.20
2014,09,13,01,45,10.20
2014,09,13,01,46,10.20
2014,09,13,01,47,10.20
2014,09,13,01,48,10.20
2014,09,13,01,49,10.20
2014,09,13,01,50,10.20
2014,09,13,01,51,10.10
2014,09,13,01,52,10.10
2014,09,13,01,53,10.10
2014,09,13,01,54,10.10
2014,09,13,01,55,10.10
2014,09,13,01,56,10.10
2014,09,13,01,57,10.10
2014,09,13,01,58,10.10
2014,09,13,01,59,10.10
2014,09,13,02,00,10.10
2014,09,13,02,01,10.10
2014,09,13,02,02,10.10
2014,09,13,02,03,10.10
2014,09,13,02,04,10.10
2014,09,13,02,05,10.10
2014,09,13,02,06,10.10
2014,09,13,02,07,10.10
2014,09,13,02,08,10.10
2014,09,13,02,09,10.10
2014,09,13,02,10,10.10
2014,09,13,02,11,10.10
2014,09,13,02,12,10.10
2014,09,13,02,13,10.10
2014,09,13,02,14,10.10
2014,09,13,02,15,10.10
2014,09,13,02,16,10.10
2014,09,13,02,17,10.10
2014,09,13,02,18,10.10
2014,09,13,02,19,10.10
2014,09,13,02,20,10.10
2014,09,13,02,21,10.10
2014,09,13,02,22,10.10
2014,09,13,02,23,10.10
2014,09,13,02,24,10.10
2014,09,13,02,25,10.10
2014,09,13,02,26,10.10
2014,09,13,02,27,10.10
2014,09,13,02,28,10.10
2014,09,13,02,29,10.10
2014,09,13,02,30,10.10
2014,09,13,02,31,10.10
2014,09,13,02,32,10.10
2014,09,13,02,33,10.10
2014,09,13,02,34,10.10
2014,09,13,02,35,10.10
2014,09,13,02,36,10.20
2014,09,13,02,37,10.20
2014,09,13,02,38,10.20
2014,09,13,02,39,10.20
2014,09,13,02,40,10.20
2014,09,13,02,41,10.20
2014,09,13,02,42,10.20
2014,09,13,02,43,10.20
2014,09,13,02,44,10.20
2014,09,13,02,45,10.20
2014,09,13,02,46,10.10
2014,09,13,02,47,10.20
2014,09,13,02,48,10.10
2014,09,13,02,49,10.10
2014,09,13,02,50,10.10
2014,09,13,02,51,10.10
2014,09,13,02,52,10.10
2014,09,13,02,53,10.10
2014,09,13,02,54,10.10
2014,09,13,02,55,10.10
2014,09,13,02,56,10.10
2014,09,13,02,57,10.10
2014,09,13,02,58,10.10
2014,09,13,02,59,10.10
2014,09,13,03,00,10.10
2014,09,13,03,01,10.10
2014,09,13,03,02,10.10
2014,09,13,03,03,10.10
2014,09,13,03,04,10.10
2014,09,13,03,05,10.10
2014,09,13,03,06,10.10
2014,09,13,03,07,10.10
2014,09,13,03,08,10.10
2014,09,13,03,09,10.10
2014,09,13,03,10,10.10
2014,09,13,03,11,10.10
2014,09,13,03,12,10.10
2014,09,13,03,13,10.10
2014,09,13,03,14,10.10
2014,09,13,03,15,10.10
2014,09,13,03,16,10.10
2014,09,13,03,17,10.10
2014,09,13,03,18,10.10
2014,09,13,03,19,10.00
2014,09,13,03,20,10.00
2014,09,13,03,21,10.00
2014,09,13,03,22,10.00
2014,09,13,03,23,10.00
2014,09,13,03,24,10.00
2014,09,13,03,25,10.00
2014,09,13,03,26,10.00
2014,09,13,03,27,10.00
2014,09,13,03,28,10.00
2014,09,13,03,29,9.90
2014,09,13,03,30,9.90
2014,09,13,03,31,9.90
2014,09,13,03,32,9.90
2014,09,13,03,33,9.90
2014,09,13,03,34,10.00
2014,09,13,03,35,10.00
2014,09,13,03,36,10.00
2014,09,13,03,37,10.00
2014,09,13,03,38,10.10
2014,09,13,03,39,10.10
2014,09,13,03,40,10.10
2014,09,13,03,41,10.10
2014,09,13,03,42,10.10
2014,09,13,03,43,10.20
2014,09,13,03,44,10.20
2014,09,13,03,45,10.20
2014,09,13,03,46,10.30
2014,09,13,03,47,10.30
2014,09,13,03,48,10.30
2014,09,13,03,49,10.40
2014,09,13,03,50,10.50
2014,09,13,03,51,10.50
2014,09,13,03,52,10.50
2014,09,13,03,53,10.60
2014,09,13,03,54,10.60
2014,09,13,03,55,10.60
2014,09,13,03,56,10.60
2014,09,13,03,57,10.60
2014,09,13,03,58,10.60
2014,09,13,03,59,10.60
2014,09,13,04,00,10.60
2014,09,13,04,01,10.60
2014,09,13,04,02,10.60
2014,09,13,04,03,10.60
2014,09,13,04,04,10.50
2014,09,13,04,05,10.50
2014,09,13,04,06,10.50
2014,09,13,04,07,10.50
2014,09,13,04,08,10.50
2014,09,13,04,09,10.50
2014,09,13,04,10,10.40
2014,09,13,04,11,10.40
2014,09,13,04,12,10.40
2014,09,13,04,13,10.40
2014,09,13,04,14,10.40
2014,09,13,04,15,10.40
2014,09,13,04,16,10.40
2014,09,13,04,17,10.40
2014,09,13,04,18,10.40
2014,09,13,04,19,10.40
2014,09,13,04,20,10.40
2014,09,13,04,21,10.40
2014,09,13,04,22,10.40
2014,09,13,04,23,10.40
2014,09,13,04,24,10.40
2014,09,13,04,25,10.40
2014,09,13,04,26,10.40
2014,09,13,04,27,10.50
2014,09,13,04,28,10.60
2014,09,13,04,29,10.60
2014,09,13,04,30,10.70
2014,09,13,04,31,10.80
2014,09,13,04,32,11.00
2014,09,13,04,33,11.10
2014,09,13,04,34,11.20
2014,09,13,04,35,11.40
2014,09,13,04,36,11.60
2014,09,13,04,37,11.80
2014,09,13,04,38,11.90
2014,09,13,04,39,12.00
2014,09,13,04,40,12.10
2014,09,13,04,41,12.30
2014,09,13,04,42,12.40
2014,09,13,04,43,12.60
2014,09,13,04,44,12.80
2014,09,13,04,45,12.90
2014,09,13,04,46,13.00
2014,09,13,04,47,13.10
2014,09,13,04,48,13.10
2014,09,13,04,49,13.20
2014,09,13,04,50,13.30
2014,09,13,04,51,13.40
2014,09,13,04,52,13.50
2014,09,13,04,53,13.60
2014,09,13,04,54,13.70
2014,09,13,04,55,13.80
2014,09,13,04,56,13.80
2014,09,13,04,57,13.90
2014,09,13,04,58,13.90
2014,09,13,04,59,14.00
2014,09,13,05,00,14.00
2014,09,13,05,01,14.10
2014,09,13,05,02,14.10
2014,09,13,05,03,14.10
2014,09,13,05,04,14.10
2014,09,13,05,05,14.10
2014,09,13,05,06,14.10
2014,09,13,05,07,14.20
2014,09,13,05,08,14.20
2014,09,13,05,09,14.20
2014,09,13,05,10,14.20
2014,09,13,05,11,14.30
2014,09,13,05,12,14.30
2014,09,13,05,13,14.40
2014,09,13,05,14,14.40
2014,09,13,05,15,14.40
2014,09,13,05,16,14.50
2014,09,13,05,17,14.50
2014,09,13,05,18,14.50
2014,09,13,05,19,14.60
2014,09,13,05,20,14.60
2014,09,13,05,21,14.60
2014,09,13,05,22,14.60
2014,09,13,05,23,14.60
2014,09,13,05,24,14.60
2014,09,13,05,25,14.60
2014,09,13,05,26,14.60
2014,09,13,05,27,14.60
2014,09,13,05,28,14.50
2014,09,13,05,29,14.50
2014,09,13,05,30,14.40
2014,09,13,05,31,14.40
2014,09,13,05,32,14.40
2014,09,13,05,33,14.40
2014,09,13,05,34,14.30
2014,09,13,05,35,14.30
2014,09,13,05,36,14.30
2014,09,13,05,37,14.40
2014,09,13,05,38,14.40
2014,09,13,05,39,14.40
2014,09,13,05,40,14.40
2014,09,13,05,41,14.40
2014,09,13,05,42,14.40
2014,09,13,05,43,14.40
2014,09,13,05,44,14.40
2014,09,13,05,45,14.30
2014,09,13,05,46,14.30
2014,09,13,05,47,14.30
2014,09,13,05,48,14.30
2014,09,13,05,49,14.30
2014,09,13,05,50,14.30
2014,09,13,05,51,14.30
2014,09,13,05,52,14.30
2014,09,13,05,53,14.30
2014,09,13,05,54,14.30
2014,09,13,05,55,14.30
2014,09,13,05,56,14.30
2014,09,13,05,57,14.30
2014,09,13,05,58,14.20
2014,09,13,05,59,14.20
2014,09,13,06,00,14.10
2014,09,13,06,01,14.00
2014,09,13,06,02,14.00
2014,09,13,06,03,13.90
2014,09,13,06,04,13.90
2014,09,13,06,05,13.80
2014,09,13,06,06,13.80
2014,09,13,06,07,13.70
2014,09,13,06,08,13.70
2014,09,13,06,09,13.70
2014,09,13,06,10,13.60
2014,09,13,06,11,13.60
2014,09,13,06,12,13.60
2014,09,13,06,13,13.50
2014,09,13,06,14,13.40
2014,09,13,06,15,13.40
2014,09,13,06,16,13.30
2014,09,13,06,17,13.20
2014,09,13,06,18,13.10
2014,09,13,06,19,13.10
2014,09,13,06,20,13.00
2014,09,13,06,21,12.90
2014,09,13,06,22,12.90
2014,09,13,06,23,12.90
2014,09,13,06,24,12.90
2014,09,13,06,25,12.90
2014,09,13,06,26,12.90
2014,09,13,06,27,12.90
2014,09,13,06,28,12.90
2014,09,13,06,29,12.80
2014,09,13,06,30,12.80
2014,09,13,06,31,12.80
2014,09,13,06,32,12.80
2014,09,13,06,33,12.80
2014,09,13,06,34,12.80
2014,09,13,06,35,12.80
2014,09,13,06,36,12.80
2014,09,13,06,37,12.80
2014,09,13,06,38,12.80
2014,09,13,06,39,12.90
2014,09,13,06,40,12.90
2014,09,13,06,41,12.90
2014,09,13,06,42,12.90
2014,09,13,06,43,12.90
2014,09,13,06,44,12.90
2014,09,13,06,45,12.90
2014,09,13,06,46,12.90
2014,09,13,06,47,13.00
2014,09,13,06,48,13.00
2014,09,13,06,49,13.00
2014,09,13,06,50,13.10
2014,09,13,06,51,13.10
2014,09,13,06,52,13.10
2014,09,13,06,53,13.10
2014,09,13,06,54,13.10
2014,09,13,06,55,13.10
2014,09,13,06,56,13.10
2014,09,13,06,57,13.20
2014,09,13,06,58,13.20
2014,09,13,06,59,13.20
2014,09,13,07,00,13.30
2014,09,13,07,01,13.30
2014,09,13,07,02,13.30
2014,09,13,07,03,13.40
2014,09,13,07,04,13.50
2014,09,13,07,05,13.50
2014,09,13,07,06,13.60
2014,09,13,07,07,13.60
2014,09,13,07,08,13.70
2014,09,13,07,09,13.80
2014,09,13,07,10,13.80
2014,09,13,07,11,13.80
2014,09,13,07,12,13.90
2014,09,13,07,13,13.90
2014,09,13,07,14,13.90
2014,09,13,07,15,13.90
2014,09,13,07,16,14.00
2014,09,13,07,17,14.00
2014,09,13,07,18,14.00
2014,09,13,07,19,14.00
2014,09,13,07,20,14.00
2014,09,13,07,21,14.00
2014,09,13,07,22,13.90
2014,09,13,07,23,13.90
2014,09,13,07,24,13.90
2014,09,13,07,25,13.90
2014,09,13,07,26,13.90
2014,09,13,07,27,13.90
2014,09,13,07,28,13.90
2014,09,13,07,29,13.90
2014,09,13,07,30,13.90
2014,09,13,07,31,14.00
2014,09,13,07,32,14.00
2014,09,13,07,33,14.00
2014,09,13,07,34,14.10
2014,09,13,07,35,14.10
2014,09,13,07,36,14.10
2014,09,13,07,37,14.10
2014,09,13,07,38,14.20
2014,09,13,07,39,14.20
2014,09,13,07,40,14.30
2014,09,13,07,41,14.30
2014,09,13,07,42,14.40
2014,09,13,07,43,14.40
2014,09,13,07,44,14.40
2014,09,13,07,45,14.50
2014,09,13,07,46,14.50
2014,09,13,07,47,14.50
2014,09,13,07,48,14.50
2014,09,13,07,49,14.60
2014,09,13,07,50,14.60
2014,09,13,07,51,14.60
2014,09,13,07,52,14.70
2014,09,13,07,53,14.70
2014,09,13,07,54,14.70
2014,09,13,07,55,14.70
2014,09,13,07,56,14.80
2014,09,13,07,57,14.80
2014,09,13,07,58,14.90
2014,09,13,07,59,14.90
2014,09,13,08,00,14.90
2014,09,13,08,01,15.00
2014,09,13,08,02,15.00
2014,09,13,08,03,15.00
2014,09,13,08,04,15.10
2014,09,13,08,05,15.10
2014,09,13,08,06,15.10
2014,09,13,08,07,15.10
2014,09,13,08,08,15.20
2014,09,13,08,09,15.20
2014,09,13,08,10,15.20
2014,09,13,08,11,15.20
2014,09,13,08,12,15.30
2014,09,13,08,13,15.30
2014,09,13,08,14,15.40
2014,09,13,08,15,15.40
2014,09,13,08,16,15.40
2014,09,13,08,17,15.40
2014,09,13,08,18,15.40
2014,09,13,08,19,15.50
2014,09,13,08,20,15.40
2014,09,13,08,21,15.40
2014,09,13,08,22,15.40
2014,09,13,08,23,15.50
2014,09,13,08,24,15.50
2014,09,13,08,25,15.50
2014,09,13,08,26,15.50
2014,09,13,08,27,15.60
2014,09,13,08,28,15.60
2014,09,13,08,29,15.70
2014,09,13,08,30,15.70
2014,09,13,08,31,15.70
2014,09,13,08,32,15.80
2014,09,13,08,33,15.80
2014,09,13,08,34,15.80
2014,09,13,08,35,15.80
2014,09,13,08,36,15.90
2014,09,13,08,37,15.90
2014,09,13,08,38,16.00
2014,09,13,08,39,16.00
2014,09,13,08,40,16.10
2014,09,13,08,41,16.10
2014,09,13,08,42,16.10
2014,09,13,08,43,16.10
2014,09,13,08,44,16.20
2014,09,13,08,45,16.20
2014,09,13,08,46,16.30
2014,09,13,08,47,16.30
2014,09,13,08,48,16.30
2014,09,13,08,49,16.40
2014,09,13,08,50,16.40
2014,09,13,08,51,16.40
2014,09,13,08,52,16.40
2014,09,13,08,53,16.50
2014,09,13,08,54,16.50
2014,09,13,08,55,16.60
2014,09,13,08,56,16.60
2014,09,13,08,57,16.60
2014,09,13,08,58,16.70
2014,09,13,08,59,16.70
2014,09,13,09,00,16.70
2014,09,13,09,01,16.70
2014,09,13,09,02,16.70
2014,09,13,09,03,16.80
2014,09,13,09,04,16.80
2014,09,13,09,05,16.80
2014,09,13,09,06,16.80
2014,09,13,09,07,16.80
2014,09,13,09,08,16.80
2014,09,13,09,09,16.80
2014,09,13,09,10,16.90
2014,09,13,09,11,16.90
2014,09,13,09,12,16.90
2014,09,13,09,13,16.90
2014,09,13,09,14,16.90
2014,09,13,09,15,17.00
2014,09,13,09,16,17.00
2014,09,13,09,17,17.00
2014,09,13,09,18,17.00
2014,09,13,09,19,17.10
2014,09,13,09,20,17.10
2014,09,13,09,21,17.10
2014,09,13,09,22,17.10
2014,09,13,09,23,17.20
2014,09,13,09,24,17.20
2014,09,13,09,25,17.20
2014,09,13,09,26,17.30
2014,09,13,09,27,17.30
2014,09,13,09,28,17.30
2014,09,13,09,29,17.40
2014,09,13,09,30,17.40
2014,09,13,09,31,17.40
2014,09,13,09,32,17.40
2014,09,13,09,33,17.50
2014,09,13,09,34,17.50
2014,09,13,09,35,17.50
2014,09,13,09,36,17.60
2014,09,13,09,37,17.60
2014,09,13,09,38,17.60
2014,09,13,09,39,17.60
2014,09,13,09,40,17.60
2014,09,13,09,41,17.70
2014,09,13,09,42,17.70
2014,09,13,09,43,17.70
2014,09,13,09,44,17.70
2014,09,13,09,45,17.70
2014,09,13,09,46,17.80
2014,09,13,09,47,17.80
2014,09,13,09,48,17.80
2014,09,13,09,49,17.80
2014,09,13,09,50,17.90
2014,09,13,09,51,17.90
2014,09,13,09,52,17.90
2014,09,13,09,53,18.00
2014,09,13,09,54,18.00
2014,09,13,09,55,18.10
2014,09,13,09,56,18.10
2014,09,13,09,57,18.10
2014,09,13,09,58,18.20
2014,09,13,09,59,18.20
2014,09,13,10,00,18.20
2014,09,13,10,01,18.20
2014,09,13,10,02,18.20
2014,09,13,10,03,18.20
2014,09,13,10,04,18.20
2014,09,13,10,05,18.20
2014,09,13,10,06,18.20
2014,09,13,10,07,18.20
2014,09,13,10,08,18.20
2014,09,13,10,09,18.20
2014,09,13,10,10,18.20
2014,09,13,10,11,18.20
2014,09,13,10,12,18.30
2014,09,13,10,13,18.30
2014,09,13,10,14,18.30
2014,09,13,10,15,18.30
2014,09,13,10,16,18.30
2014,09,13,10,17,18.40
2014,09,13,10,18,18.40
2014,09,13,10,19,18.40
2014,09,13,10,20,18.40
2014,09,13,10,21,18.50
2014,09,13,10,22,18.50
2014,09,13,10,23,18.50
2014,09,13,10,24,18.50
2014,09,13,10,25,18.50
2014,09,13,10,26,18.60
2014,09,13,10,27,18.60
2014,09,13,10,28,18.60
2014,09,13,10,29,18.60
2014,09,13,10,30,18.60
2014,09,13,10,31,18.60
2014,09,13,10,32,18.60
2014,09,13,10,33,18.60
2014,09,13,10,34,18.60
2014,09,13,10,35,18.60
2014,09,13,10,36,18.60
2014,09,13,10,37,18.70
2014,09,13,10,38,18.70
2014,09,13,10,39,18.70
2014,09,13,10,40,18.70
2014,09,13,10,41,18.80
2014,09,13,10,42,18.80
2014,09,13,10,43,18.80
2014,09,13,10,44,18.90
2014,09,13,10,45,18.90
2014,09,13,10,46,19.00
2014,09,13,10,47,19.00
2014,09,13,10,48,19.00
2014,09,13,10,49,19.10
2014,09,13,10,50,19.10
2014,09,13,10,51,19.20
2014,09,13,10,52,19.20
2014,09,13,10,53,19.20
2014,09,13,10,54,19.30
2014,09,13,10,55,19.30
2014,09,13,10,56,19.40
2014,09,13,10,57,19.40
2014,09,13,10,58,19.50
2014,09,13,10,59,19.50
2014,09,13,11,00,19.50
2014,09,13,11,01,19.60
2014,09,13,11,02,19.60
2014,09,13,11,03,19.60
2014,09,13,11,04,19.60
2014,09,13,11,05,19.60
2014,09,13,11,06,19.70
2014,09,13,11,07,19.70
2014,09,13,11,08,19.70
2014,09,13,11,09,19.70
2014,09,13,11,10,19.70
2014,09,13,11,11,19.70
2014,09,13,11,12,19.70
2014,09,13,11,13,19.70
2014,09,13,11,14,19.70
2014,09,13,11,15,19.70
2014,09,13,11,16,19.70
2014,09,13,11,17,19.70
2014,09,13,11,18,19.80
2014,09,13,11,19,19.80
2014,09,13,11,20,19.80
2014,09,13,11,21,19.90
2014,09,13,11,22,19.90
2014,09,13,11,23,19.90
2014,09,13,11,24,20.00
2014,09,13,11,25,20.10
2014,09,13,11,26,20.10
2014,09,13,11,27,20.20
2014,09,13,11,28,20.20
2014,09,13,11,29,20.20
2014,09,13,11,30,20.30
2014,09,13,11,31,20.30
2014,09,13,11,32,20.30
2014,09,13,11,33,20.40
2014,09,13,11,34,20.40
2014,09,13,11,35,20.40
2014,09,13,11,36,20.40
2014,09,13,11,37,20.40
2014,09,13,11,38,20.40
2014,09,13,11,39,20.40
2014,09,13,11,40,20.40
2014,09,13,11,41,20.50
2014,09,13,11,42,20.50
2014,09,13,11,43,20.50
2014,09,13,11,44,20.60
2014,09,13,11,45,20.60
2014,09,13,11,46,20.70
2014,09,13,11,47,20.70
2014,09,13,11,48,20.70
2014,09,13,11,49,20.70
2014,09,13,11,50,20.70
2014,09,13,11,51,20.70
2014,09,13,11,52,20.70
2014,09,13,11,53,20.80
2014,09,13,11,54,20.80
2014,09,13,11,55,20.80
2014,09,13,11,56,20.80
2014,09,13,11,57,20.90
2014,09,13,11,58,20.90
2014,09,13,11,59,20.90
2014,09,13,12,00,20.90
2014,09,13,12,01,21.00
2014,09,13,12,02,21.00
2014,09,13,12,03,21.00
2014,09,13,12,04,21.00
2014,09,13,12,05,21.00
2014,09,13,12,06,21.00
2014,09,13,12,07,21.00
2014,09,13,12,08,21.00
2014,09,13,12,09,21.00
2014,09,13,12,10,21.00
2014,09,13,12,11,21.00
2014,09,13,12,12,21.00
2014,09,13,12,13,21.00
2014,09,13,12,14,21.00
2014,09,13,12,15,21.10
2014,09,13,12,16,21.20
2014,09,13,12,17,21.20
2014,09,13,12,18,21.20
2014,09,13,12,19,21.20
2014,09,13,12,20,21.20
2014,09,13,12,21,21.20
2014,09,13,12,22,21.20
2014,09,13,12,23,21.20
2014,09,13,12,24,21.20
2014,09,13,12,25,21.20
2014,09,13,12,26,21.20
2014,09,13,12,27,21.20
2014,09,13,12,28,21.20
2014,09,13,12,29,21.20
2014,09,13,12,30,21.20
2014,09,13,12,31,21.30
2014,09,13,12,32,21.30
2014,09,13,12,33,21.30
2014,09,13,12,34,21.30
2014,09,13,12,35,21.30
2014,09,13,12,36,21.30
2014,09,13,12,37,21.30
2014,09,13,12,38,21.40
2014,09,13,12,39,21.40
2014,09,13,12,40,21.40
2014,09,13,12,41,21.40
2014,09,13,12,42,21.50
2014,09,13,12,43,21.50
2014,09,13,12,44,21.50
2014,09,13,12,45,21.50
2014,09,13,12,46,21.50
2014,09,13,12,47,21.50
2014,09,13,12,48,21.50
2014,09,13,12,49,21.40
2014,09,13,12,50,21.40
2014,09,13,12,51,21.40
2014,09,13,12,52,21.40
2014,09,13,12,53,21.40
2014,09,13,12,54,21.40
2014,09,13,12,55,21.50
2014,09,13,12,56,21.50
2014,09,13,12,57,21.60
2014,09,13,12,58,21.60
2014,09,13,12,59,21.60
2014,09,13,13,00,21.60
2014,09,13,13,01,21.50
2014,09,13,13,02,21.50
2014,09,13,13,03,21.50
2014,09,13,13,04,21.50
2014,09,13,13,05,21.50
2014,09,13,13,06,21.60
2014,09,13,13,07,21.60
2014,09,13,13,08,21.60
2014,09,13,13,09,21.60
2014,09,13,13,10,21.60
2014,09,13,13,11,21.60
2014,09,13,13,12,21.70
2014,09,13,13,13,21.70
2014,09,13,13,14,21.70
2014,09,13,13,15,21.70
2014,09,13,13,16,21.70
2014,09,13,13,17,21.70
2014,09,13,13,18,21.70
2014,09,13,13,19,21.70
2014,09,13,13,20,21.70
2014,09,13,13,21,21.70
2014,09,13,13,22,21.70
2014,09,13,13,23,21.70
2014,09,13,13,24,21.80
2014,09,13,13,25,21.80
2014,09,13,13,26,21.80
2014,09,13,13,27,21.80
2014,09,13,13,28,21.80
2014,09,13,13,29,21.80
2014,09,13,13,30,21.80
2014,09,13,13,31,21.80
2014,09,13,13,32,21.80
2014,09,13,13,33,21.80
2014,09,13,13,34,21.80
2014,09,13,13,35,21.90
2014,09,13,13,36,22.00
2014,09,13,13,37,22.00
2014,09,13,13,38,22.00
2014,09,13,13,39,22.00
2014,09,13,13,40,22.00
2014,09,13,13,41,22.00
2014,09,13,13,42,22.00
2014,09,13,13,43,22.00
2014,09,13,13,44,22.10
2014,09,13,13,45,22.10
2014,09,13,13,46,22.20
2014,09,13,13,47,22.20
2014,09,13,13,48,22.20
2014,09,13,13,49,22.20
2014,09,13,13,50,22.30
2014,09,13,13,51,22.30
2014,09,13,13,52,22.30
2014,09,13,13,53,22.30
2014,09,13,13,54,22.40
2014,09,13,13,55,22.40
2014,09,13,13,56,22.40
2014,09,13,13,57,22.50
2014,09,13,13,58,22.50
2014,09,13,13,59,22.50
2014,09,13,14,00,22.60
2014,09,13,14,01,22.60
2014,09,13,14,02,22.50
2014,09,13,14,03,22.50
2014,09,13,14,04,22.50
2014,09,13,14,05,22.40
2014,09,13,14,06,22.40
2014,09,13,14,07,22.40
2014,09,13,14,08,22.40
2014,09,13,14,09,22.40
2014,09,13,14,10,22.40
2014,09,13,14,11,22.40
2014,09,13,14,12,22.40
2014,09,13,14,13,22.40
2014,09,13,14,14,22.40
2014,09,13,14,15,22.40
2014,09,13,14,16,22.40
2014,09,13,14,17,22.30
2014,09,13,14,18,22.30
2014,09,13,14,19,22.30
2014,09,13,14,20,22.30
2014,09,13,14,21,22.30
2014,09,13,14,22,22.30
2014,09,13,14,23,22.30
2014,09,13,14,24,22.30
2014,09,13,14,25,22.30
2014,09,13,14,26,22.40
2014,09,13,14,27,22.40
2014,09,13,14,28,22.40
2014,09,13,14,29,22.40
2014,09,13,14,30,22.50
2014,09,13,14,31,22.50
2014,09,13,14,32,22.50
2014,09,13,14,33,22.60
2014,09,13,14,34,22.60
2014,09,13,14,35,22.70
2014,09,13,14,36,22.70
2014,09,13,14,37,22.80
2014,09,13,14,38,22.80
2014,09,13,14,39,22.80
2014,09,13,14,40,22.80
2014,09,13,14,41,22.80
2014,09,13,14,42,22.80
2014,09,13,14,43,22.80
2014,09,13,14,44,22.90
2014,09,13,14,45,22.90
2014,09,13,14,46,22.90
2014,09,13,14,47,23.00
2014,09,13,14,48,23.00
2014,09,13,14,49,23.10
2014,09,13,14,50,23.10
2014,09,13,14,51,23.10
2014,09,13,14,52,23.20
2014,09,13,14,53,23.20
2014,09,13,14,54,23.20
2014,09,13,14,55,23.20
2014,09,13,14,56,23.20
2014,09,13,14,57,23.20
2014,09,13,14,58,23.20
2014,09,13,14,59,23.10
2014,09,13,15,00,23.10
2014,09,13,15,01,23.20
2014,09,13,15,02,23.20
2014,09,13,15,03,23.20
2014,09,13,15,04,23.20
2014,09,13,15,05,23.20
2014,09,13,15,06,23.20
2014,09,13,15,07,23.30
2014,09,13,15,08,23.30
2014,09,13,15,09,23.40
2014,09,13,15,10,23.50
2014,09,13,15,11,23.60
2014,09,13,15,12,23.60
2014,09,13,15,13,23.70
2014,09,13,15,14,23.70
2014,09,13,15,15,23.70
2014,09,13,15,16,23.70
2014,09,13,15,17,23.70
2014,09,13,15,18,23.70
2014,09,13,15,19,23.70
2014,09,13,15,20,23.80
2014,09,13,15,21,23.80
2014,09,13,15,22,23.70
2014,09,13,15,23,23.70
2014,09,13,15,24,23.70
2014,09,13,15,25,23.70
2014,09,13,15,26,23.60
2014,09,13,15,27,23.60
2014,09,13,15,28,23.60
2014,09,13,15,29,23.60
2014,09,13,15,30,23.60
2014,09,13,15,31,23.60
2014,09,13,15,32,23.60
2014,09,13,15,33,23.70
2014,09,13,15,34,23.70
2014,09,13,15,35,23.80
2014,09,13,15,36,23.80
2014,09,13,15,37,23.90
2014,09,13,15,38,23.90
2014,09,13,15,39,23.90
2014,09,13,15,40,23.90
2014,09,13,15,41,23.90
2014,09,13,15,42,23.90
2014,09,13,15,43,23.90
2014,09,13,15,44,24.00
2014,09,13,15,45,23.90
2014,09,13,15,46,23.90
2014,09,13,15,47,24.00
2014,09,13,15,48,24.00
2014,09,13,15,49,24.10
2014,09,13,15,50,24.10
2014,09,13,15,51,24.20
2014,09,13,15,52,24.20
2014,09,13,15,53,24.30
2014,09,13,15,54,24.30
2014,09,13,15,55,24.30
2014,09,13,15,56,24.30
2014,09,13,15,57,24.30
2014,09,13,15,58,24.30
2014,09,13,15,59,24.30
2014,09,13,16,00,24.20
2014,09,13,16,01,24.10
2014,09,13,16,02,24.10
2014,09,13,16,03,24.10
2014,09,13,16,04,24.10
2014,09,13,16,05,24.00
2014,09,13,16,06,24.00
2014,09,13,16,07,24.00
2014,09,13,16,08,23.90
2014,09,13,16,09,24.00
2014,09,13,16,10,24.00
2014,09,13,16,11,24.00
2014,09,13,16,12,24.10
2014,09,13,16,13,24.10
2014,09,13,16,14,24.20
2014,09,13,16,15,24.20
2014,09,13,16,16,24.20
2014,09,13,16,17,24.30
2014,09,13,16,18,24.30
2014,09,13,16,19,24.30
2014,09,13,16,20,24.30
2014,09,13,16,21,24.30
2014,09,13,16,22,24.30
2014,09,13,16,23,24.30
2014,09,13,16,24,24.30
2014,09,13,16,25,24.30
2014,09,13,16,26,24.40
2014,09,13,16,27,24.40
2014,09,13,16,28,24.40
2014,09,13,16,29,24.40
2014,09,13,16,30,24.40
2014,09,13,16,31,24.30
2014,09,13,16,32,24.30
2014,09,13,16,33,24.30
2014,09,13,16,34,24.30
2014,09,13,16,35,24.30
2014,09,13,16,36,24.30
2014,09,13,16,37,24.20
2014,09,13,16,38,24.30
2014,09,13,16,39,24.30
2014,09,13,16,40,24.30
2014,09,13,16,41,24.30
2014,09,13,16,42,24.30
2014,09,13,16,43,24.30
2014,09,13,16,44,24.30
2014,09,13,16,45,24.30
2014,09,13,16,46,24.40
2014,09,13,16,47,24.40
2014,09,13,16,48,24.40
2014,09,13,16,49,24.40
2014,09,13,16,50,24.40
2014,09,13,16,51,24.40
2014,09,13,16,52,24.40
2014,09,13,16,53,24.50
2014,09,13,16,54,24.50
2014,09,13,16,55,24.60
2014,09,13,16,56,24.60
2014,09,13,16,57,24.60
2014,09,13,16,58,24.70
2014,09,13,16,59,24.70
2014,09,13,17,00,24.70
2014,09,13,17,01,24.70
2014,09,13,17,02,24.70
2014,09,13,17,03,24.70
2014,09,13,17,04,24.60
2014,09,13,17,05,24.60
2014,09,13,17,06,24.60
2014,09,13,17,07,24.60
2014,09,13,17,08,24.60
2014,09,13,17,09,24.60
2014,09,13,17,10,24.60
2014,09,13,17,11,24.60
2014,09,13,17,12,24.60
2014,09,13,17,13,24.60
2014,09,13,17,14,24.60
2014,09,13,17,15,24.60
2014,09,13,17,16,24.60
2014,09,13,17,17,24.70
2014,09,13,17,18,24.70
2014,09,13,17,19,24.70